Thalassa — FNFP — position and weather

sailwx.info

Track history (hours):
 
Tides and Currents Weather Stations Pressure Air Temp Water Temp Dewpoint Dewpoint Depression Visibility Wind Speed Wind Dir Waves Ship Positions

Oceanographic research ship Thalassa (France & Spain)

Detailed information on ship capabilities available from University of Delaware's Ocean Information Center.

Last reported at 2014-Oct-24 10:33 UTC. Time now 2014-Oct-24 11:30 UTC.
Position N 43°31' W 002°15'.

Length 74 m; beam 15 m.

Type: . MMSI: 227297000.

Date/timePositionNaut miles runAvg speedWind from/ knotsBaromVisibWave heightAir tempDewpointWater temp
2014-Oct-24 10:33N 43°31' W 002°15'3 2.5
2014-Oct-24 09:33N 43°34' W 002°14'0 0.3
2014-Oct-24 08:33N 43°34' W 002°13'3 2.6
2014-Oct-24 07:33N 43°36' W 002°15'3 3.2
2014-Oct-24 06:33N 43°36' W 002°19'2 1.8
2014-Oct-24 05:33N 43°36' W 002°22'4 2.1
2014-Oct-24 03:33N 43°36' W 002°16'4 3.3
2014-Oct-24 02:26N 43°36' W 002°11'6 5.4
2014-Oct-24 01:20N 43°42' W 002°10'4 5.3
2014-Oct-24 00:33N 43°46' W 002°09'11 5.4
2014-Oct-23 22:32N 43°57' W 002°07'7 6.9
2014-Oct-23 21:33N 44°04' W 002°06'1 1.0
2014-Oct-23 20:26N 44°04' W 002°05'1 1.2
2014-Oct-23 19:16N 44°03' W 002°06'14 2.8
2014-Oct-23 14:21N 44°12' W 001°52'27 6.8
2014-Oct-23 10:21N 44°36' W 002°10'3 2.1
2014-Oct-23 09:05N 44°34' W 002°09'3 4.3
2014-Oct-23 08:23N 44°31' W 002°07'8 4.2
2014-Oct-23 06:33N 44°38' W 002°09'1 1.0
2014-Oct-23 05:28N 44°38' W 002°10'7 3.8
2014-Oct-23 03:32N 44°37' W 002°00'139 3.1
2014-Oct-21 07:13N 46°25' W 004°06'2 2.1
2014-Oct-21 06:24N 46°26' W 004°08'30 1.1
2014-Oct-20 03:20N 46°25' W 003°25'2 2.4
2014-Oct-20 02:31N 46°27' W 003°24'19 5.5
2014-Oct-19 23:09N 46°17' W 003°02'3 5.7
2014-Oct-19 22:33N 46°15' W 002°57'6 5.6
2014-Oct-19 21:33N 46°13' W 002°50'1 0.3
2014-Oct-19 20:04N 46°13' W 002°50'2 3.1
2014-Oct-19 19:16N 46°13' W 002°46'6 6.6
2014-Oct-19 18:25N 46°11' W 002°54'3 1.8
2014-Oct-19 16:33N 46°12' W 002°50'9 4.5
2014-Oct-19 14:33N 46°21' W 002°53'12 5.8
2014-Oct-19 12:24N 46°33' W 002°55'910.4
2014-Oct-19 11:33N 46°36' W 002°43'5 2.6
2014-Oct-19 09:30N 46°38' W 002°35'111 8.6
2014-Oct-18 20:33N 47°54' W 004°35'1010.4
2014-Oct-18 19:33N 48°02' W 004°45'1010.2
2014-Oct-18 18:33N 48°12' W 004°45'10 9.7
2014-Oct-18 17:33N 48°19' W 004°36'3 3.1
2014-Oct-18 16:33N 48°19' W 004°31'0 0.0
2014-Oct-18 15:33N 48°19' W 004°31'0 0.0
2014-Oct-18 14:33N 48°19' W 004°31'0 0.0
2014-Oct-18 13:33N 48°19' W 004°31'0 0.0
2014-Oct-18 12:33N 48°19' W 004°31'0 0.0
2014-Oct-18 11:33N 48°19' W 004°31'0 0.0
2014-Oct-18 10:33N 48°19' W 004°31'0 0.0
2014-Oct-18 09:33N 48°19' W 004°31'0 0.0
2014-Oct-18 08:33N 48°19' W 004°31'0 0.0
2014-Oct-18 07:33N 48°19' W 004°31'2 2.0
2014-Oct-18 06:33N 48°21' W 004°30'2 1.8
2014-Oct-18 05:33N 48°23' W 004°29'0 0.0
2014-Oct-18 04:33N 48°23' W 004°29'0 0.0
2014-Oct-18 03:33N 48°23' W 004°29'0 0.0
2014-Oct-18 02:33N 48°23' W 004°29'0 0.0
2014-Oct-18 01:33N 48°23' W 004°29'0 0.0
2014-Oct-18 00:33N 48°23' W 004°29'0 0.0
2014-Oct-17 23:33N 48°23' W 004°29'0 0.0
2014-Oct-17 22:33N 48°23' W 004°29'0 0.0
2014-Oct-17 21:33N 48°23' W 004°29'0 0.0
2014-Oct-17 20:33N 48°23' W 004°29'0 0.0
2014-Oct-17 19:33N 48°23' W 004°29'0 0.0
2014-Oct-17 18:33N 48°23' W 004°29'0 0.0
2014-Oct-17 17:33N 48°23' W 004°29'0 0.0
2014-Oct-17 16:33N 48°23' W 004°29'0 0.0
2014-Oct-17 15:33N 48°23' W 004°29'0 0.0
2014-Oct-17 14:33N 48°23' W 004°29'0 0.0
2014-Oct-17 13:33N 48°23' W 004°29'0 0.0
2014-Oct-17 12:33N 48°23' W 004°29'0 0.0
2014-Oct-17 11:33N 48°23' W 004°29'0 0.0
2014-Oct-17 10:33N 48°23' W 004°29'0 0.0
2014-Oct-17 09:33N 48°23' W 004°29'0 0.0
2014-Oct-17 08:33N 48°23' W 004°29'0 0.0
2014-Oct-17 07:33N 48°23' W 004°29'0 0.0
2014-Oct-17 06:33N 48°23' W 004°29'0 0.0
2014-Oct-17 05:33N 48°23' W 004°29'0 0.0
2014-Oct-17 04:33N 48°23' W 004°29'0 0.0
2014-Oct-17 03:33N 48°23' W 004°29'0 0.0
2014-Oct-17 02:33N 48°23' W 004°29'0 0.0
2014-Oct-17 01:33N 48°23' W 004°29'0 0.0
2014-Oct-17 00:33N 48°23' W 004°29'0 0.0
2014-Oct-16 23:33N 48°23' W 004°29'0 0.0
2014-Oct-16 22:33N 48°23' W 004°29'0 0.0
2014-Oct-16 21:33N 48°23' W 004°29'0 0.0
2014-Oct-16 20:33N 48°23' W 004°29'0 0.0
2014-Oct-16 19:33N 48°23' W 004°29'0 0.0
2014-Oct-16 18:33N 48°23' W 004°29'0 0.0
2014-Oct-16 17:33N 48°23' W 004°29'0 0.0
2014-Oct-16 16:33N 48°23' W 004°29'0 0.0
2014-Oct-16 15:30N 48°23' W 004°29'0 0.0
2014-Oct-16 14:33N 48°23' W 004°29'0 0.0
2014-Oct-16 13:33N 48°23' W 004°29'0 0.0
2014-Oct-16 12:33N 48°23' W 004°29'0 0.0
2014-Oct-16 11:33N 48°23' W 004°29'0 0.0
2014-Oct-16 10:33N 48°23' W 004°29'0 0.0
2014-Oct-16 09:33N 48°23' W 004°29'0 0.0
2014-Oct-16 08:33N 48°23' W 004°29'0 0.0
2014-Oct-16 07:33N 48°23' W 004°29'0 0.0
2014-Oct-16 06:33N 48°23' W 004°29'0 0.0
2014-Oct-16 05:33N 48°23' W 004°29'0 0.0
2014-Oct-16 04:33N 48°23' W 004°29'0 0.0
2014-Oct-16 03:33N 48°23' W 004°29'0 0.0
2014-Oct-16 02:33N 48°23' W 004°29'0 0.0
2014-Oct-16 01:33N 48°23' W 004°29'0 0.0
2014-Oct-16 00:33N 48°23' W 004°29'0 0.0
2014-Oct-15 23:33N 48°23' W 004°29'0 0.0
2014-Oct-15 22:33N 48°23' W 004°29'0 0.0
2014-Oct-15 21:33N 48°23' W 004°29'0 0.0
2014-Oct-15 20:33N 48°23' W 004°29'0 0.0
2014-Oct-15 19:33N 48°23' W 004°29'0 0.0
2014-Oct-15 18:33N 48°23' W 004°29'0 0.0
2014-Oct-15 17:33N 48°23' W 004°29'0 0.0
2014-Oct-15 16:33N 48°23' W 004°29'0 0.0
2014-Oct-15 15:33N 48°23' W 004°29'0 0.0
2014-Oct-15 14:33N 48°23' W 004°29'0 0.0
2014-Oct-15 13:33N 48°23' W 004°29'0 0.0
2014-Oct-15 12:33N 48°23' W 004°29'0 0.0
2014-Oct-15 11:33N 48°23' W 004°29'0 0.0
2014-Oct-15 10:33N 48°23' W 004°29'0 0.0
2014-Oct-15 09:33N 48°23' W 004°29'0 0.0
2014-Oct-15 08:33N 48°23' W 004°29'0 0.0
2014-Oct-15 07:33N 48°23' W 004°29'0 0.0
2014-Oct-15 06:33N 48°23' W 004°29'0 0.0
2014-Oct-15 05:33N 48°23' W 004°29'0 0.0
2014-Oct-15 04:33N 48°23' W 004°29'0 0.0
2014-Oct-15 03:33N 48°23' W 004°29'0 0.0
2014-Oct-15 02:33N 48°23' W 004°29'0 0.0
2014-Oct-15 01:33N 48°23' W 004°29'0 0.0
2014-Oct-15 00:33N 48°23' W 004°29'0 0.0
2014-Oct-14 23:33N 48°23' W 004°29'0 0.0
2014-Oct-14 22:33N 48°23' W 004°29'0 0.0
2014-Oct-14 21:32N 48°23' W 004°29'0 0.0
2014-Oct-14 20:32N 48°23' W 004°29'0 0.0
2014-Oct-14 19:32N 48°23' W 004°29'0 0.0
2014-Oct-14 18:32N 48°23' W 004°29'0 0.0
2014-Oct-14 17:32N 48°23' W 004°29'0 0.0
2014-Oct-14 16:32N 48°23' W 004°29'0 0.0
2014-Oct-14 15:32N 48°23' W 004°29'0 0.0
2014-Oct-14 14:32N 48°23' W 004°29'0 0.0
2014-Oct-14 13:32N 48°23' W 004°29'0 0.0
2014-Oct-14 12:32N 48°23' W 004°29'1 0.6
2014-Oct-14 11:34N 48°22' W 004°29'  
Track history (hours):
 
Tides and Currents Weather Stations Pressure Air Temp Water Temp Dewpoint Dewpoint Depression Visibility Wind Speed Wind Dir Waves Ship Positions

Oceanographic research ship Thalassa (France & Spain)

Detailed information on ship capabilities available from University of Delaware's Ocean Information Center.

Last reported at 2014-Oct-24 10:33 UTC. Time now 2014-Oct-24 11:30 UTC.
Position N 43°31' W 002°15'.

Length 74 m; beam 15 m.

Type: . MMSI: 227297000.

Date/timePositionNaut miles runAvg speedWind from/ knotsBaromVisibWave heightAir tempDewpointWater temp
2014-Oct-24 10:33N 43°31' W 002°15'3 2.5
2014-Oct-24 09:33N 43°34' W 002°14'0 0.3
2014-Oct-24 08:33N 43°34' W 002°13'3 2.6
2014-Oct-24 07:33N 43°36' W 002°15'3 3.2
2014-Oct-24 06:33N 43°36' W 002°19'2 1.8
2014-Oct-24 05:33N 43°36' W 002°22'4 2.1
2014-Oct-24 03:33N 43°36' W 002°16'4 3.3
2014-Oct-24 02:26N 43°36' W 002°11'6 5.4
2014-Oct-24 01:20N 43°42' W 002°10'4 5.3
2014-Oct-24 00:33N 43°46' W 002°09'11 5.4
2014-Oct-23 22:32N 43°57' W 002°07'7 6.9
2014-Oct-23 21:33N 44°04' W 002°06'1 1.0
2014-Oct-23 20:26N 44°04' W 002°05'1 1.2
2014-Oct-23 19:16N 44°03' W 002°06'14 2.8
2014-Oct-23 14:21N 44°12' W 001°52'27 6.8
2014-Oct-23 10:21N 44°36' W 002°10'3 2.1
2014-Oct-23 09:05N 44°34' W 002°09'3 4.3
2014-Oct-23 08:23N 44°31' W 002°07'8 4.2
2014-Oct-23 06:33N 44°38' W 002°09'1 1.0
2014-Oct-23 05:28N 44°38' W 002°10'7 3.8
2014-Oct-23 03:32N 44°37' W 002°00'139 3.1
2014-Oct-21 07:13N 46°25' W 004°06'2 2.1
2014-Oct-21 06:24N 46°26' W 004°08'30 1.1
2014-Oct-20 03:20N 46°25' W 003°25'2 2.4
2014-Oct-20 02:31N 46°27' W 003°24'19 5.5
2014-Oct-19 23:09N 46°17' W 003°02'3 5.7
2014-Oct-19 22:33N 46°15' W 002°57'6 5.6
2014-Oct-19 21:33N 46°13' W 002°50'1 0.3
2014-Oct-19 20:04N 46°13' W 002°50'2 3.1
2014-Oct-19 19:16N 46°13' W 002°46'6 6.6
2014-Oct-19 18:25N 46°11' W 002°54'3 1.8
2014-Oct-19 16:33N 46°12' W 002°50'9 4.5
2014-Oct-19 14:33N 46°21' W 002°53'12 5.8
2014-Oct-19 12:24N 46°33' W 002°55'910.4
2014-Oct-19 11:33N 46°36' W 002°43'5 2.6
2014-Oct-19 09:30N 46°38' W 002°35'111 8.6
2014-Oct-18 20:33N 47°54' W 004°35'1010.4
2014-Oct-18 19:33N 48°02' W 004°45'1010.2
2014-Oct-18 18:33N 48°12' W 004°45'10 9.7
2014-Oct-18 17:33N 48°19' W 004°36'3 3.1
2014-Oct-18 16:33N 48°19' W 004°31'0 0.0
2014-Oct-18 15:33N 48°19' W 004°31'0 0.0
2014-Oct-18 14:33N 48°19' W 004°31'0 0.0
2014-Oct-18 13:33N 48°19' W 004°31'0 0.0
2014-Oct-18 12:33N 48°19' W 004°31'0 0.0
2014-Oct-18 11:33N 48°19' W 004°31'0 0.0
2014-Oct-18 10:33N 48°19' W 004°31'0 0.0
2014-Oct-18 09:33N 48°19' W 004°31'0 0.0
2014-Oct-18 08:33N 48°19' W 004°31'0 0.0
2014-Oct-18 07:33N 48°19' W 004°31'2 2.0
2014-Oct-18 06:33N 48°21' W 004°30'2 1.8
2014-Oct-18 05:33N 48°23' W 004°29'0 0.0
2014-Oct-18 04:33N 48°23' W 004°29'0 0.0
2014-Oct-18 03:33N 48°23' W 004°29'0 0.0
2014-Oct-18 02:33N 48°23' W 004°29'0 0.0
2014-Oct-18 01:33N 48°23' W 004°29'0 0.0
2014-Oct-18 00:33N 48°23' W 004°29'0 0.0
2014-Oct-17 23:33N 48°23' W 004°29'0 0.0
2014-Oct-17 22:33N 48°23' W 004°29'0 0.0
2014-Oct-17 21:33N 48°23' W 004°29'0 0.0
2014-Oct-17 20:33N 48°23' W 004°29'0 0.0
2014-Oct-17 19:33N 48°23' W 004°29'0 0.0
2014-Oct-17 18:33N 48°23' W 004°29'0 0.0
2014-Oct-17 17:33N 48°23' W 004°29'0 0.0
2014-Oct-17 16:33N 48°23' W 004°29'0 0.0
2014-Oct-17 15:33N 48°23' W 004°29'0 0.0
2014-Oct-17 14:33N 48°23' W 004°29'0 0.0
2014-Oct-17 13:33N 48°23' W 004°29'0 0.0
2014-Oct-17 12:33N 48°23' W 004°29'0 0.0
2014-Oct-17 11:33N 48°23' W 004°29'0 0.0
2014-Oct-17 10:33N 48°23' W 004°29'0 0.0
2014-Oct-17 09:33N 48°23' W 004°29'0 0.0
2014-Oct-17 08:33N 48°23' W 004°29'0 0.0
2014-Oct-17 07:33N 48°23' W 004°29'0 0.0
2014-Oct-17 06:33N 48°23' W 004°29'0 0.0
2014-Oct-17 05:33N 48°23' W 004°29'0 0.0
2014-Oct-17 04:33N 48°23' W 004°29'0 0.0
2014-Oct-17 03:33N 48°23' W 004°29'0 0.0
2014-Oct-17 02:33N 48°23' W 004°29'0 0.0
2014-Oct-17 01:33N 48°23' W 004°29'0 0.0
2014-Oct-17 00:33N 48°23' W 004°29'0 0.0
2014-Oct-16 23:33N 48°23' W 004°29'0 0.0
2014-Oct-16 22:33N 48°23' W 004°29'0 0.0
2014-Oct-16 21:33N 48°23' W 004°29'0 0.0
2014-Oct-16 20:33N 48°23' W 004°29'0 0.0
2014-Oct-16 19:33N 48°23' W 004°29'0 0.0
2014-Oct-16 18:33N 48°23' W 004°29'0 0.0
2014-Oct-16 17:33N 48°23' W 004°29'0 0.0
2014-Oct-16 16:33N 48°23' W 004°29'0 0.0
2014-Oct-16 15:30N 48°23' W 004°29'0 0.0
2014-Oct-16 14:33N 48°23' W 004°29'0 0.0
2014-Oct-16 13:33N 48°23' W 004°29'0 0.0
2014-Oct-16 12:33N 48°23' W 004°29'0 0.0
2014-Oct-16 11:33N 48°23' W 004°29'0 0.0
2014-Oct-16 10:33N 48°23' W 004°29'0 0.0
2014-Oct-16 09:33N 48°23' W 004°29'0 0.0
2014-Oct-16 08:33N 48°23' W 004°29'0 0.0
2014-Oct-16 07:33N 48°23' W 004°29'0 0.0
2014-Oct-16 06:33N 48°23' W 004°29'0 0.0
2014-Oct-16 05:33N 48°23' W 004°29'0 0.0
2014-Oct-16 04:33N 48°23' W 004°29'0 0.0
2014-Oct-16 03:33N 48°23' W 004°29'0 0.0
2014-Oct-16 02:33N 48°23' W 004°29'0 0.0
2014-Oct-16 01:33N 48°23' W 004°29'0 0.0
2014-Oct-16 00:33N 48°23' W 004°29'0 0.0
2014-Oct-15 23:33N 48°23' W 004°29'0 0.0
2014-Oct-15 22:33N 48°23' W 004°29'0 0.0
2014-Oct-15 21:33N 48°23' W 004°29'0 0.0
2014-Oct-15 20:33N 48°23' W 004°29'0 0.0
2014-Oct-15 19:33N 48°23' W 004°29'0 0.0
2014-Oct-15 18:33N 48°23' W 004°29'0 0.0
2014-Oct-15 17:33N 48°23' W 004°29'0 0.0
2014-Oct-15 16:33N 48°23' W 004°29'0 0.0
2014-Oct-15 15:33N 48°23' W 004°29'0 0.0
2014-Oct-15 14:33N 48°23' W 004°29'0 0.0
2014-Oct-15 13:33N 48°23' W 004°29'0 0.0
2014-Oct-15 12:33N 48°23' W 004°29'0 0.0
2014-Oct-15 11:33N 48°23' W 004°29'0 0.0
2014-Oct-15 10:33N 48°23' W 004°29'0 0.0
2014-Oct-15 09:33N 48°23' W 004°29'0 0.0
2014-Oct-15 08:33N 48°23' W 004°29'0 0.0
2014-Oct-15 07:33N 48°23' W 004°29'0 0.0
2014-Oct-15 06:33N 48°23' W 004°29'0 0.0
2014-Oct-15 05:33N 48°23' W 004°29'0 0.0
2014-Oct-15 04:33N 48°23' W 004°29'0 0.0
2014-Oct-15 03:33N 48°23' W 004°29'0 0.0
2014-Oct-15 02:33N 48°23' W 004°29'0 0.0
2014-Oct-15 01:33N 48°23' W 004°29'0 0.0
2014-Oct-15 00:33N 48°23' W 004°29'0 0.0
2014-Oct-14 23:33N 48°23' W 004°29'0 0.0
2014-Oct-14 22:33N 48°23' W 004°29'0 0.0
2014-Oct-14 21:32N 48°23' W 004°29'0 0.0
2014-Oct-14 20:32N 48°23' W 004°29'0 0.0
2014-Oct-14 19:32N 48°23' W 004°29'0 0.0
2014-Oct-14 18:32N 48°23' W 004°29'0 0.0
2014-Oct-14 17:32N 48°23' W 004°29'0 0.0
2014-Oct-14 16:32N 48°23' W 004°29'0 0.0
2014-Oct-14 15:32N 48°23' W 004°29'0 0.0
2014-Oct-14 14:32N 48°23' W 004°29'0 0.0
2014-Oct-14 13:32N 48°23' W 004°29'0 0.0
2014-Oct-14 12:32N 48°23' W 004°29'1 0.6
2014-Oct-14 11:34N 48°22' W 004°29'  

Dump ship's entire track history